Simultaneous Nadir Overpasses (SNOs) Predictions

Prediction of SNOs between AQUA and METOP-A Satellite Orbit:

Table of predicted SNOs for the next 14.0 days since TLE Epoch: 2/16/2018
Index Date (AQUA) Time (AQUA) Lat,Lon (AQUA) SZA (AQUA ) Date (METOP-A) Time (METOP-A) Lat,Lon (METOP-A) SZA (METOP-A ) Distance(km) Time Diff (sec)
1 02/17/2018 07:41:46 74.15, 58.14 86.25 02/17/2018 07:41:09 74.14, 58.03 86.26 3.48 37
2 02/17/2018 08:31:13 -74.22,-134.38 93.69 02/17/2018 08:31:49 -74.20,-134.48 93.70 3.37 36
3 02/20/2018 03:16:03 74.15, 124.57 85.26 02/20/2018 03:15:27 74.16, 124.48 85.27 2.75 36
4 02/20/2018 04:05:30 -74.21, -67.94 94.69 02/20/2018 04:06:07 -74.22, -68.03 94.69 2.85 37
5 02/22/2018 22:50:20 74.16,-169.02 84.24 02/22/2018 22:49:45 74.17,-169.08 84.26 2.00 35
6 02/22/2018 23:39:47 -74.22, -1.51 95.71 02/22/2018 23:40:25 -74.24, -1.58 95.69 3.27 38
7 02/25/2018 18:24:36 74.18,-102.62 83.22 02/25/2018 18:24:02 74.18,-102.64 83.23 0.71 34
8 02/25/2018 19:14:03 -74.23, 64.91 96.75 02/25/2018 19:14:42 -74.26, 64.87 96.72 3.33 39
9 02/28/2018 13:58:53 74.20, -36.24 82.18 02/28/2018 13:58:20 74.19, -36.21 82.18 1.52 33
10 02/28/2018 14:48:20 -74.25, 131.30 97.79 02/28/2018 14:49:00 -74.27, 131.31 97.77 2.76 40




NCC Satellite Simultaneous Nadir Overpasses (SNOs) Prediction Service
